カタログに戻る

STARLINK-11448

運用中通信VLEO
NORAD 63005·PAYLOAD·🇺🇸 United States

打ち上げ Feb 15, 2025 から Cape Canaveral Space Force Station

Loading…

次のパス (今後24時間)

TLE

最新Source: CelesTrak SupGP

元期: Sep 15, 2026, 02:11 UTC

1 63005C 25032A   26258.09145833  .00081573  00000+0  63341-3 0  2583
2 63005  43.0003 133.3269 0001681 274.2592 166.3470 15.70804003    16

AllMySatでSTARLINK-11448をリアルタイム追跡

Download on the App Store